Location: Équennes
(49.7375°N, 1.9622°E)
Time: 09:04:00
(UTC+00:00)

Cosmos 1656 - Pass Details

Date: 03 October 2023
Orbit: 797 x 849 km, 71.1° (Epoch: 10 December)

Event Time Altitude Azimuth Distance (km) Brightness Sun altitude
Rises 20:57:44 0° 335° (NNW) 3,316 7.7 -32.8°
Reaches altitude 10° 21:00:36 10° 349° (NNW) 2,385 6.6 -33.2°
Enters shadow 21:03:14 21° 15° (NNE) 1,751 5.5 -33.5°
